TimeCDT,TemperatureF,Dew PointF,Humidity,Sea Level PressureIn,VisibilityMPH,Wind Direction,Wind SpeedMPH,Gust SpeedMPH,PrecipitationIn,Events,Conditions,WindDirDegrees,DateUTC
12:56 AM,63.0,61.0,93,29.88,-9999.0,SW,5.8,-,N/A,,Unknown,230,2013-07-20 05:56:00
1:56 AM,64.0,60.1,87,29.88,-9999.0,Calm,Calm,-,N/A,,Unknown,0,2013-07-20 06:56:00
2:56 AM,63.0,59.0,87,29.86,-9999.0,NNW,4.6,-,N/A,,Unknown,340,2013-07-20 07:56:00
3:56 AM,60.1,57.9,93,29.87,-9999.0,North,3.5,-,N/A,,Unknown,350,2013-07-20 08:56:00
4:56 AM,60.1,57.0,90,29.88,-9999.0,NNW,4.6,-,N/A,,Unknown,330,2013-07-20 09:56:00
5:56 AM,60.1,57.9,93,29.88,-9999.0,NW,5.8,-,N/A,,Unknown,320,2013-07-20 10:56:00
6:56 AM,61.0,59.0,93,29.90,-9999.0,North,5.8,-,N/A,,Unknown,350,2013-07-20 11:56:00
7:56 AM,61.0,59.0,93,29.94,-9999.0,North,12.7,-,N/A,,Unknown,350,2013-07-20 12:56:00
8:56 AM,60.1,57.9,93,29.97,-9999.0,NW,6.9,-,0.07,,Unknown,320,2013-07-20 13:56:00
9:56 AM,62.1,60.1,93,29.95,-9999.0,NNW,5.8,-,0.02,,Unknown,330,2013-07-20 14:56:00
10:56 AM,64.9,61.0,87,29.95,-9999.0,North,6.9,-,N/A,,Unknown,10,2013-07-20 15:56:00
11:56 AM,68.0,62.1,81,29.93,-9999.0,NNE,9.2,-,N/A,,Unknown,30,2013-07-20 16:56:00
12:56 PM,68.0,62.1,81,29.93,-9999.0,NNE,8.1,-,N/A,,Unknown,30,2013-07-20 17:56:00
1:56 PM,71.1,62.1,73,29.92,-9999.0,North,6.9,-,N/A,,Unknown,10,2013-07-20 18:56:00
2:56 PM,73.9,64.0,71,29.91,-9999.0,ENE,10.4,-,N/A,,Unknown,60,2013-07-20 19:56:00
3:56 PM,73.9,62.1,66,29.91,-9999.0,NE,8.1,-,N/A,,Unknown,40,2013-07-20 20:56:00
4:56 PM,73.9,61.0,64,29.92,-9999.0,NE,8.1,-,N/A,,Unknown,50,2013-07-20 21:56:00
5:56 PM,73.0,60.1,64,29.91,-9999.0,ENE,6.9,-,N/A,,Unknown,60,2013-07-20 22:56:00
6:56 PM,73.0,60.1,64,29.90,-9999.0,NE,5.8,-,N/A,,Unknown,40,2013-07-20 23:56:00
7:56 PM,72.0,63.0,73,29.90,-9999.0,NNE,6.9,-,N/A,,Unknown,20,2013-07-21 00:56:00
8:56 PM,66.9,61.0,81,29.89,-9999.0,NNE,5.8,-,N/A,,Unknown,30,2013-07-21 01:56:00
9:56 PM,64.0,61.0,90,29.92,-9999.0,North,4.6,-,N/A,,Unknown,360,2013-07-21 02:56:00
10:56 PM,62.1,59.0,90,29.92,-9999.0,Calm,Calm,-,N/A,,Unknown,0,2013-07-21 03:56:00
11:56 PM,63.0,60.1,90,29.92,-9999.0,Calm,Calm,-,N/A,,Unknown,0,2013-07-21 04:56:00